Regional Weather Roundup
Issued by NWS

Home | Current Version | Previous Version | Graphics & Text | Print | Product List | Glossary On
Versions: 1 2 3 4 5 6 7 8 9 10 11 12 13 14 15 16 17 18 19 20 21 22 23 24 25 26 27 28 29 30 31 32 33 34 35 36 37 38 39 40 41 42 43 44 45 46 47 48 49 50
000
ASUS43 KIND 040009
RWRIN

WEATHER ROUNDUP FOR INDIANA
NATIONAL WEATHER SERVICE INDIANAPOLIS IN
800 PM EDT MON AUG 03 2015

NOTE: "FAIR" INDICATES FEW OR NO CLOUDS BELOW 12,000 FEET WITH NO
SIGNIFICANT WEATHER AND/OR OBSTRUCTIONS TO VISIBILITY.

* - STATION DOES NOT REPORT WEATHER SUCH AS PRECIPITATION OR FOG.

+ - STATION NOT QUALITY CONTROLLED BY THE NATIONAL WEATHER SERVICE.
    USE DATA WITH CAUTION...ESPECIALLY DEWPOINT AND RELATIVE
    HUMIDITY OBSERVATIONS.

INZ001>003-010>013-019-020-040100-
NORTHWEST INDIANA

CITY           SKY/WX    TMP DP  RH WIND       PRES   REMARKS
GARY /AIRPORT/ SUNNY     77  52  41 CALM      29.86S
KNOX *+        SUNNY     73  52  46 N6        29.87R
LA PORTE +     SUNNY     76  54  46 CALM      29.88R
6HR MIN TEMP:  76; 6HR MAX TEMP:  80;

MICHIGAN CITY+ SUNNY     73  48  40 CALM      29.87R
MONTICELLO +   CLEAR     78  60  52 W8        29.86R
6HR MIN TEMP:  78; 6HR MAX TEMP:  83;

RENSSELAER +   SUNNY     77  52  41 NW7       29.87R
VALPARAISO     SUNNY     75  53  46 CALM      29.88R
6HR MIN TEMP:  75; 6HR MAX TEMP:  81;


$$

LMZ046-743>745-040100-
SOUTHERN LAKE MICHIGAN

STATION/POSITION TIME  TEMP    WIND        PRES    WAVE
                       AIR SEA DIR/SP/G            HT
                 (UTC) (F)     (DEG/KT/KT) (MB)    (FT)
BURNS HARBOR     2300   78      50/  5/  6 1011.5S
MICHIGAN CITY    2300   77     360/  2/  3   N/A
5NW MICH CITY    0000   77 75   CALM  /  2   N/A     1

$$

INZ004-005-014>016-021>024-040100-
NORTH CENTRAL INDIANA

CITY           SKY/WX    TMP DP  RH WIND       PRES   REMARKS
ELKHART        CLEAR     75  46  35 NW6       29.87S
GOSHEN         CLEAR     73  52  47 NW7       29.87R
6HR MIN TEMP:  73; 6HR MAX TEMP:  79;

LOGANSPORT +   CLEAR     77  52  41 NW3       29.87R
PERU/GRISSOM   CLEAR     80  59  47 NW10      29.85R
6HR MIN TEMP:  80; 6HR MAX TEMP:  84;

ROCHESTER +    CLEAR     77  57  50 N6        29.87R
SOUTH BEND     CLEAR     76  49  38 NW5       29.88R
6HR MIN TEMP:  76; 6HR MAX TEMP:  80;

WARSAW +       CLEAR     73  55  53 NW5       29.87R

$$

INZ006>009-017-018-025>027-040100-
NORTHEAST INDIANA

CITY           SKY/WX    TMP DP  RH WIND       PRES   REMARKS
ANGOLA *+      CLEAR     73  66  78 NW5       29.87R
AUBURN +       CLEAR     73  48  40 NW5       29.88R
FORT WAYNE     PTCLDY    76  59  55 NW7       29.87R
6HR MIN TEMP:  76; 6HR MAX TEMP:  84;

HUNTINGTON +   PTCLDY    76  60  56 N3        29.86R
6HR MIN TEMP:  76; 6HR MAX TEMP:  82;


$$

INZ028-029-035-036-043>045-051>053-040100-
WEST CENTRAL INDIANA

CITY           SKY/WX    TMP DP  RH WIND       PRES   REMARKS
CRAWFORDSVL +  CLOUDY    78  64  61 NW6         N/A
6HR MIN TEMP:  78; 6HR MAX TEMP:  83;

LAFAYETTE      SUNNY     78  60  53 NW6       29.86R
6HR MIN TEMP:  78; 6HR MAX TEMP:  84;

TERRE HAUTE    MOSUNNY   84  64  50 NW7       29.87R
6HR MIN TEMP:  84; 6HR MAX TEMP:  89;


$$

INZ030>032-037>040-046>048-054>057-064-065-040100-
CENTRAL INDIANA

CITY           SKY/WX    TMP DP  RH WIND       PRES   REMARKS
FRANKFORT +    CLEAR     78  64  61 NW5       29.89R
6HR MIN TEMP:  78; 6HR MAX TEMP:  85;

GREENWOOD *+   PTCLDY    82  61  47 W8G17     29.87R
INDIANAPOLIS   PTCLDY    83  65  54 W12       29.86R
6HR MIN TEMP:  83; 6HR MAX TEMP:  89;

-EAGLE CREEK   MOCLDY    81  68  64 W5        29.86R
6HR MIN TEMP:  81; 6HR MAX TEMP:  87;

KOKOMO *+      CLEAR     81  63  54 NW7       29.86R
6HR MIN TEMP:  81; 6HR MAX TEMP:  84;

MARION +       PTCLDY    77  62  59 NW5       29.87R
MT COMFORT *+  CLEAR     81  61  50 NW8       29.87S
SHELBYVILLE    CLEAR     83  70  64 NW6       29.85R
6HR MIN TEMP:  83; 6HR MAX TEMP:  89;

ZIONSVILLE +   CLEAR     80  64  56 NW3       29.88R
6HR MIN TEMP:  80; 6HR MAX TEMP:  85;


$$

INZ033-034-041-042-049-050-058-059-040100-
EAST CENTRAL INDIANA

CITY           SKY/WX    TMP DP  RH WIND       PRES   REMARKS
MUNCIE         CLEAR     77  63  61 NW6       29.86S
6HR MIN TEMP:  77; 6HR MAX TEMP:  82;


$$

INZ060-061-067>069-081>083-085>088-040100-
SOUTHWEST INDIANA

CITY           SKY/WX    TMP DP  RH WIND       PRES   REMARKS
EVANSVILLE     PTCLDY    89  70  53 W9        29.87S
6HR MIN TEMP:  89; 6HR MAX TEMP:  94;

HUNTINGBURG *+ MOCLDY    84  72  65 W6        29.87S
6HR MIN TEMP:  84; 6HR MAX TEMP:  91;

WASHINGTON +   PTCLDY    84  64  52 NW5       29.86R
6HR MIN TEMP:  84; 6HR MAX TEMP:  90;


$$

INZ062-063-066-070>080-084-089>092-040100-
SOUTH CENTRAL AND SOUTHEAST INDIANA

CITY           SKY/WX    TMP DP  RH WIND       PRES   REMARKS
BLOOMINGTON    CLEAR     83  69  62 VRB5      29.87R
6HR MIN TEMP:  83; 6HR MAX TEMP:  89;

MADISON *+     CLEAR     86  64  48 CALM      29.88S
NORTH VERNON + PTCLDY    86  68  54 W3        29.87R
SEYMOUR +      MOCLDY    86  70  58 W3        29.85R

$$



USA.gov is the U.S. government's official web portal to all federal, state and local government web resources and services.